Flag for U.S.A. Weather past 2 weeks in Chesapeake, Virginia, U.S.A.

Now
81 °F

Clear.


Feels Like: 87 °F
Forecast: 72 / 89 °F
Wind: No wind

Location: Chesapeake Municipal Airport

Current Time: Jul 31, 2015 at 1:18:49 AM

Latest Report: Jul 31, 2015 at 12:55 AM


Visibility: 10 mi

Pressure: 29.90 "Hg

Humidity: 89%

Dew point: 77 °F

Location of ChesapeakeLocation

Historic Weather in Chesapeake — Graph

°F

Chesapeake temperature yesterday

Maximum temperature yesterday: 95 °F (at 2:35 PM)
Minimum temperature yesterday: 70 °F (at 5:35 AM)
Average temperature yesterday: 83 °F

Past Weeks' High & Low Weather Summary

 TemperatureHumidityPressure
High97 °F (Jul 20, 2:15 PM)100% (Jul 16, 12:15 AM)30.09 "Hg (Jul 16, 12:15 AM)
Low63 °F (Jul 26, 3:35 AM)31% (Jul 24, 1:15 PM)29.64 "Hg (Jul 21, 3:35 PM)
Average81 °F76%29.94 "Hg
* Reported Jul 15 11:15 PM — Jul 30 11:55 PM, Chesapeake, Weather by CustomWeather, © 2015

Note: Actual official high and low records may vary slightly from our data, if they occured in-between our weather recording intervals... More about our weather records

Advertising

Chesapeake weather history for previous 24 hours

 ConditionsComfort  
Time TempWeatherWind HumidityBarometerVisibility
11:55 PM
Thu, Jul 30
82 °FClear.6 mph84%29.90 "Hg7 mi
11:35 PM82 °FClear.5 mph84%29.90 "Hg7 mi
11:15 PM82 °FLight rain. Clear.6 mph84%29.90 "Hg7 mi
10:55 PM82 °FClear.6 mph89%29.90 "Hg10 mi
10:35 PM84 °FClear.6 mph84%29.90 "Hg7 mi
10:15 PM84 °FClear.5 mph84%29.90 "Hg10 mi
9:55 PM84 °FClear.5 mph84%29.90 "Hg10 mi
9:35 PM84 °FClear.6 mph84%29.89 "Hg10 mi
9:15 PM84 °FClear.3 mph84%29.89 "Hg10 mi
8:55 PM86 °FSunny.3 mph79%29.88 "Hg10 mi
8:35 PM86 °FSunny.No wind79%29.89 "Hg10 mi
8:15 PM88 °FSunny.3 mph70%29.88 "Hg10 mi
7:55 PM88 °FSunny.3 mph70%29.88 "Hg10 mi
7:35 PM88 °FSunny.3 mph70%29.87 "Hg7 mi
7:15 PM88 °FSunny.3 mph70%29.87 "Hg10 mi
6:55 PM90 °FSunny.6 mph63%29.86 "Hg10 mi
5:15 PM93 °FSunny.8 mph59%29.86 "Hg10 mi
4:55 PM93 °FScattered clouds.9 mph56%29.86 "Hg10 mi
4:35 PM93 °FScattered clouds.8 mph53%29.87 "Hg10 mi
4:15 PM93 °FScattered clouds.5 mph49%29.87 "Hg10 mi
3:55 PM95 °FScattered clouds.8 mph47%29.87 "Hg10 mi
3:35 PM95 °FSunny.3 mph39%29.88 "Hg10 mi
3:15 PM95 °FSunny.6 mph39%29.89 "Hg10 mi
2:55 PM95 °FSunny.5 mph41%29.90 "Hg10 mi
2:35 PM95 °FSunny.5 mph39%29.91 "Hg10 mi
2:15 PM93 °FSunny.No wind41%29.92 "Hg10 mi
1:55 PM93 °FSunny.6 mph41%29.93 "Hg10 mi
1:35 PM93 °FSunny.6 mph49%29.94 "Hg7 mi
1:15 PM91 °FScattered clouds.No wind56%29.94 "Hg7 mi
12:55 PM91 °FScattered clouds.8 mph56%29.95 "Hg7 mi
12:15 PM91 °FSunny.6 mph56%29.96 "Hg5 mi
11:55 AM91 °FSunny.7 mph56%29.96 "Hg7 mi
11:15 AM90 °FSunny.3 mph59%29.96 "Hg10 mi
10:55 AM88 °FSunny.No wind62%29.96 "Hg7 mi
10:35 AM88 °FSunny.No wind66%29.96 "Hg10 mi
10:15 AM88 °FScattered clouds.No wind66%29.96 "Hg10 mi
9:55 AM86 °FScattered clouds.3 mph70%29.96 "Hg10 mi
9:35 AM84 °FScattered clouds.No wind74%29.97 "Hg10 mi
9:15 AM84 °FScattered clouds.No wind79%29.97 "Hg10 mi
8:55 AM82 °FSunny.No wind84%29.97 "Hg10 mi
8:35 AM82 °FSunny.No wind79%29.97 "Hg10 mi
8:15 AM81 °FSunny.No wind84%29.96 "Hg10 mi
7:55 AM79 °FSunny.No wind84%29.96 "Hg10 mi
7:15 AM73 °FSunny.No wind94%29.97 "Hg10 mi
6:55 AM72 °FClear.No wind94%29.97 "Hg10 mi
6:35 AM72 °FClear.No wind94%29.96 "Hg10 mi
6:15 AM72 °FClear.No wind94%29.96 "Hg10 mi
5:55 AM70 °FClear.No wind100%29.96 "Hg10 mi
5:35 AM70 °FClear.No wind94%29.95 "Hg10 mi
5:15 AM72 °FClear.No wind94%29.95 "Hg10 mi
4:55 AM72 °FClear.No wind94%29.96 "Hg10 mi
4:35 AM72 °FClear.No wind94%29.96 "Hg7 mi
4:15 AM72 °FClear.No wind94%29.96 "Hg7 mi
3:55 AM72 °FClear.No wind94%29.96 "Hg10 mi
3:35 AM72 °FClear.No wind94%29.96 "Hg10 mi
3:15 AM72 °FClear.No wind94%29.97 "Hg10 mi
2:55 AM73 °FClear.No wind94%29.97 "Hg10 mi
2:35 AM73 °FClear.No wind94%29.97 "Hg10 mi
2:15 AM73 °FClear.No wind94%29.98 "Hg10 mi
1:55 AM75 °FClear.No wind89%29.98 "Hg7 mi
1:15 AM75 °FClear.3 mph94%30.00 "Hg10 mi
Weather by CustomWeather, © 2015

See weather overviewHow to use our weather pages